Location: Capvern
(43.1036°N, 0.3160°E)
Time: 04:00:05
(UTC+00:00)

Cosmos 489 Rocket - Pass Details

Date: 16 October 2021
Orbit: 953 x 983 km, 74.0° (Epoch: 02 December)

Event Time Altitude Azimuth Distance (km) Brightness Sun altitude
Rises 19:00:37 0° 340° (NNW) 3,640 7.9 -20.2°
Reaches altitude 10° 19:03:09 10° 341° (NNW) 2,689 7.1 -20.6°
Maximum altitude 19:09:24 84° 70° (ENE) 964 4.3 -21.8°
Enters shadow 19:13:44 21° 158° (SSE) 2,003 5.8 -22.6°
